When you browse on this site, cookies collect data to enhance your experience and personalize the content and advertising you see.
Visit our Privacy Policy to learn more. By continuing to use the site, you agree to this use of cookies and data.
  • Em Portugal
  • Lista de países
  • Para 7 dias
  • Temperatura da água
  • Mapas de satélite
  • Mapa do tempo
  • Widgets de tempo
  • user-avatar
    Iniciar Sessão

    Previsão horária em Anielewo

    Hoje, 18 Abril, Quinta-feira

    Tempo Temperatura Precipitação Vento Pressão Humidade
    00:00 +9°C° 0 mm 2 m/s 762 mmHg 69%
    01:00 +8°C° 0 mm 3 m/s 762 mmHg 70%
    02:00 +8°C° 0 mm 2 m/s 763 mmHg 70%
    03:00 +8°C° 0 mm 2 m/s 763 mmHg 71%
    04:00 +7°C° 0 mm 2 m/s 763 mmHg 72%
    05:00 +8°C° 0 mm 2 m/s 763 mmHg 70%
    06:00 +9°C° 0 mm 2 m/s 763 mmHg 68%
    07:00 +10°C° 0 mm 2 m/s 764 mmHg 66%
    08:00 +14°C° 0 mm 2 m/s 764 mmHg 60%
    09:00 +16°C° 0 mm 3 m/s 764 mmHg 54%
    10:00 +18°C° 0 mm 3 m/s 764 mmHg 48%
    11:00 +18°C° 0 mm 3 m/s 764 mmHg 44%
    12:00 +19°C° 0 mm 3 m/s 764 mmHg 41%
    13:00 +20°C° 0 mm 3 m/s 764 mmHg 38%
    14:00 +20°C° 0 mm 3 m/s 764 mmHg 39%
    15:00 +20°C° 0 mm 3 m/s 764 mmHg 39%
    16:00 +20°C° 0 mm 3 m/s 764 mmHg 39%
    17:00 +18°C° 0 mm 3 m/s 764 mmHg 44%
    18:00 +16°C° 0 mm 2 m/s 764 mmHg 49%
    19:00 +14°C° 0 mm 2 m/s 764 mmHg 54%
    20:00 +14°C° 0 mm 2 m/s 764 mmHg 58%
    21:00 +13°C° 0 mm 2 m/s 765 mmHg 62%
    22:00 +11°C° 0 mm 3 m/s 765 mmHg 66%
    23:00 +10°C° 0 mm 3 m/s 765 mmHg 70%

    Amanhã, 19 Abril, Sexta-feira

    Tempo Temperatura Precipitação Vento Pressão Humidade
    00:00 +9°C° 0 mm 3 m/s 765 mmHg 74%
    01:00 +9°C° 0 mm 3 m/s 766 mmHg 78%
    02:00 +8°C° 0 mm 3 m/s 766 mmHg 79%
    03:00 +8°C° 0 mm 3 m/s 766 mmHg 79%
    04:00 +7°C° 0 mm 3 m/s 766 mmHg 79%
    05:00 +8°C° 0 mm 3 m/s 766 mmHg 75%
    06:00 +9°C° 0 mm 3 m/s 766 mmHg 71%
    07:00 +10°C° 0 mm 3 m/s 766 mmHg 67%
    08:00 +12°C° 0 mm 3 m/s 766 mmHg 61%
    09:00 +14°C° 0 mm 3 m/s 766 mmHg 55%
    10:00 +17°C° 0 mm 3 m/s 766 mmHg 49%
    11:00 +18°C° 0 mm 3 m/s 766 mmHg 44%
    12:00 +19°C° 0 mm 3 m/s 766 mmHg 40%
    13:00 +20°C° 0 mm 3 m/s 766 mmHg 36%
    14:00 +20°C° 0 mm 3 m/s 765 mmHg 35%
    15:00 +20°C° 0 mm 3 m/s 765 mmHg 35%
    16:00 +20°C° 0 mm 3 m/s 765 mmHg 34%
    17:00 +18°C° 0 mm 3 m/s 765 mmHg 39%
    18:00 +16°C° 0 mm 3 m/s 765 mmHg 44%
    19:00 +14°C° 0 mm 2 m/s 765 mmHg 50%
    20:00 +12°C° 0 mm 3 m/s 765 mmHg 56%
    21:00 +10°C° 0 mm 3 m/s 765 mmHg 62%
    22:00 +9°C° 0 mm 3 m/s 765 mmHg 68%
    23:00 +8°C° 0 mm 3 m/s 765 mmHg 68%

    Depois de amanhã, 20 Abril, Sábado

    Tempo Temperatura Precipitação Vento Pressão Humidade
    00:00 +7°C° 0 mm 3 m/s 765 mmHg 67%
    01:00 +7°C° 0 mm 3 m/s 765 mmHg 67%
    02:00 +5°C° 0 mm 3 m/s 765 mmHg 65%
    03:00 +5°C° 0 mm 2 m/s 765 mmHg 63%
    04:00 +5°C° 0 mm 2 m/s 765 mmHg 61%
    05:00 +5°C° 0 mm 2 m/s 765 mmHg 58%
    06:00 +5°C° 0 mm 3 m/s 765 mmHg 56%
    07:00 +7°C° 0 mm 3 m/s 765 mmHg 54%
    08:00 +9°C° 0 mm 3 m/s 765 mmHg 50%
    09:00 +11°C° 0 mm 3 m/s 764 mmHg 46%
    10:00 +13°C° 0 mm 3 m/s 764 mmHg 41%
    11:00 +14°C° 0 mm 3 m/s 764 mmHg 41%
    12:00 +15°C° 0 mm 4 m/s 764 mmHg 41%
    13:00 +18°C° 0 mm 4 m/s 763 mmHg 40%
    14:00 +18°C° 0 mm 4 m/s 763 mmHg 41%
    15:00 +18°C° 0 mm 4 m/s 763 mmHg 41%
    16:00 +18°C° 0 mm 4 m/s 762 mmHg 41%
    17:00 +15°C° 0 mm 4 m/s 762 mmHg 46%
    18:00 +13°C° 0 mm 3 m/s 762 mmHg 51%
    19:00 +12°C° 0 mm 3 m/s 762 mmHg 56%
    20:00 +10°C° 0 mm 3 m/s 762 mmHg 58%
    21:00 +9°C° 0 mm 3 m/s 762 mmHg 60%
    22:00 +8°C° 0 mm 3 m/s 762 mmHg 62%
    23:00 +7°C° 0 mm 3 m/s 762 mmHg 63%

    21 Abril, Domingo

    Tempo Temperatura Precipitação Vento Pressão Humidade
    00:00 +7°C° 0 mm 3 m/s 762 mmHg 65%
    01:00 +6°C° 0 mm 2 m/s 762 mmHg 66%
    02:00 +6°C° 0 mm 2 m/s 762 mmHg 67%
    03:00 +5°C° 0 mm 2 m/s 761 mmHg 68%
    04:00 +5°C° 0 mm 2 m/s 761 mmHg 69%
    05:00 +6°C° 0 mm 2 m/s 761 mmHg 65%
    06:00 +7°C° 0 mm 2 m/s 761 mmHg 62%
    07:00 +8°C° 0 mm 2 m/s 761 mmHg 59%
    08:00 +10°C° 0 mm 2 m/s 761 mmHg 54%
    09:00 +13°C° 0 mm 2 m/s 760 mmHg 49%
    10:00 +15°C° 0 mm 2 m/s 760 mmHg 43%
    11:00 +16°C° 0 mm 2 m/s 760 mmHg 41%
    12:00 +17°C° 0 mm 2 m/s 759 mmHg 39%
    13:00 +18°C° 0 mm 2 m/s 759 mmHg 36%
    14:00 +18°C° 0 mm 2 m/s 758 mmHg 37%
    15:00 +18°C° 0 mm 2 m/s 758 mmHg 37%
    16:00 +18°C° 0 mm 2 m/s 757 mmHg 37%
    17:00 +17°C° 0 mm 2 m/s 757 mmHg 42%
    18:00 +15°C° 0 mm 2 m/s 757 mmHg 47%
    19:00 +14°C° 0 mm 1 m/s 757 mmHg 52%
    20:00 +13°C° 0 mm 1 m/s 757 mmHg 54%
    21:00 +12°C° 0 mm 2 m/s 757 mmHg 57%
    22:00 +10°C° 0 mm 2 m/s 757 mmHg 59%
    23:00 +10°C° 0 mm 1 m/s 757 mmHg 62%

    22 Abril, Segunda-feira

    Tempo Temperatura Precipitação Vento Pressão Humidade
    00:00 +10°C° 0 mm 1 m/s 757 mmHg 64%
    01:00 +9°C° 0 mm 1 m/s 757 mmHg 66%
    02:00 +8°C° 0 mm 1 m/s 757 mmHg 69%
    03:00 +8°C° 0 mm 1 m/s 757 mmHg 71%
    04:00 +8°C° 0 mm 1 m/s 756 mmHg 73%
    05:00 +9°C° 0 mm 1 m/s 756 mmHg 71%
    06:00 +9°C° 0 mm 2 m/s 756 mmHg 68%
    07:00 +10°C° 0 mm 2 m/s 757 mmHg 66%
    08:00 +11°C° 0 mm 3 m/s 756 mmHg 61%
    09:00 +13°C° 0 mm 3 m/s 756 mmHg 57%
    10:00 +16°C° 0 mm 3 m/s 756 mmHg 52%
    11:00 +15°C° 0.1 mm 4 m/s 756 mmHg 50%
    12:00 +17°C° 0.1 mm 4 m/s 756 mmHg 48%
    13:00 +18°C° 0.1 mm 4 m/s 756 mmHg 45%
    14:00 +17°C° 0.1 mm 4 m/s 755 mmHg 47%
    15:00 +17°C° 0.1 mm 4 m/s 755 mmHg 48%
    16:00 +17°C° 0.1 mm 4 m/s 755 mmHg 50%
    17:00 +14°C° 0.1 mm 4 m/s 755 mmHg 58%
    18:00 +13°C° 0.1 mm 4 m/s 755 mmHg 66%
    19:00 +11°C° 0.1 mm 3 m/s 756 mmHg 74%
    20:00 +10°C° 0 mm 3 m/s 756 mmHg 76%
    21:00 +10°C° 0 mm 3 m/s 756 mmHg 79%
    22:00 +9°C° 0 mm 3 m/s 756 mmHg 82%
    23:00 +8°C° 0 mm 4 m/s 756 mmHg 82%

    23 Abril, Terça-feira

    Tempo Temperatura Precipitação Vento Pressão Humidade
    00:00 +8°C° 0 mm 5 m/s 756 mmHg 83%
    01:00 +8°C° 0 mm 5 m/s 756 mmHg 84%
    02:00 +7°C° 0 mm 6 m/s 756 mmHg 81%
    03:00 +7°C° 0 mm 6 m/s 756 mmHg 78%
    04:00 +7°C° 0 mm 6 m/s 756 mmHg 75%
    05:00 +6°C° 0 mm 7 m/s 756 mmHg 72%
    06:00 +7°C° 0 mm 8 m/s 756 mmHg 70%
    07:00 +7°C° 0 mm 8 m/s 756 mmHg 67%
    08:00 +10°C° 0 mm 8 m/s 755 mmHg 65%
    09:00 +11°C° 0 mm 8 m/s 755 mmHg 63%
    10:00 +13°C° 0 mm 8 m/s 755 mmHg 61%
    11:00 +13°C° 0.2 mm 8 m/s 754 mmHg 63%
    12:00 +13°C° 0.2 mm 8 m/s 754 mmHg 66%
    13:00 +14°C° 0.2 mm 7 m/s 754 mmHg 69%
    14:00 +15°C° 0 mm 8 m/s 753 mmHg 65%
    15:00 +16°C° 0 mm 9 m/s 753 mmHg 61%
    16:00 +17°C° 0 mm 9 m/s 752 mmHg 56%
    17:00 +16°C° 0.1 mm 9 m/s 752 mmHg 57%
    18:00 +15°C° 0.1 mm 8 m/s 752 mmHg 58%
    19:00 +15°C° 0.1 mm 7 m/s 752 mmHg 58%
    20:00 +14°C° 0 mm 7 m/s 752 mmHg 58%
    21:00 +12°C° 0 mm 7 m/s 752 mmHg 57%
    22:00 +11°C° 0 mm 7 m/s 752 mmHg 56%
    23:00 +11°C° 0 mm 7 m/s 752 mmHg 57%
    Mostrar mais